Regional Weather Roundup
Issued by NWS

Home | Current Version | Previous Version | Graphics & Text | Print | Product List | Glossary On
Versions: 1 2 3 4 5 6 7 8 9 10 11 12 13 14 15 16 17 18 19 20 21 22 23 24 25 26 27 28 29 30 31 32 33 34 35 36 37 38 39 40 41 42 43 44 45 46 47 48 49 50
229
ASUS43 KLSX 171907
RWRMO

WEATHER SUMMARY FOR MISSOURI
NATIONAL WEATHER SERVICE SPRINGFIELD MO
100 PM CST SAT FEB 17 2018

NOTE: "FAIR" INDICATES FEW OR NO CLOUDS BELOW 12,000 FEET WITH NO
       SIGNIFICANT WEATHER AND/OR OBSTRUCTIONS TO VISIBILITY.
       CURRENT SKY AND/OR WEATHER CONDITIONS ARE NOT AVAILABLE FOR
       CHILLICOTHE AND FARMINGTON.

MOZ001>031-035>038-043-044-053-054-172000-
...NORTHERN AND WESTERN MISSOURI...

CITY           SKY/WX    TMP DP  RH WIND       PRES   REMARKS
KANSAS CTY INT MOSUNNY   50  24  36 NW18      30.04R
KANSAS C DTWN  SUNNY     51  27  39 W13       30.03S
LEE`S SUMMIT   SUNNY     48  32  53 W9        30.04R
ST JOSEPH      SUNNY     49  26  41 NW18      30.04R
CHILLICOTHE      N/A     50  26  39 NW9G16    29.99F
KIRKSVILLE     PTSUNNY   39  34  82 W13G23    29.97S

$$
MOZ066>068-077>081-088>096-101>105-172000-
...SOUTHWEST MISSOURI...

CITY           SKY/WX    TMP DP  RH WIND       PRES   REMARKS
SPRINGFIELD    CLOUDY    43  40  89 W14       30.06R
JOPLIN         CLOUDY    44  39  82 W12       30.11R
BRANSON        CLOUDY    41  41 100 W6        30.08S FOG

$$
MOZ032>034-039>042-045>050-055>058-069>072-172000-
...CENTRAL MISSOURI...

CITY           SKY/WX    TMP DP  RH WIND       PRES   REMARKS
COLUMBIA       CLOUDY    39  37  92 SW16      30.00F
JEFFERSON CITY CLOUDY    39  36  89 W10       30.04S
ROLLA          CLOUDY    39  38  96 SW14      30.01F
SEDALIA        PTSUNNY   45  39  79 W17G25    30.03R
WHITEMAN AFB   PTSUNNY   45  36  69 W20       30.00R
WARRENSBURG    PTSUNNY   46  36  66 W10G21    30.05R
OSAGE BEACH    CLOUDY    41  38  89 W12       30.05R

$$
MOZ051-052-059>065-172000-
...EAST CENTRAL MISSOURI...

CITY           SKY/WX    TMP DP  RH WIND       PRES   REMARKS
ST LOUIS INTL  LGT RAIN  37  36  96 S10       30.01F VSB 1   WCI  30
SPIRIT OF STL  CLOUDY    38  37  97 SW5       30.00F FOG
ST CHARLES     MIX PCPN  36  35  96 S6        30.01F FOG

$$
MOZ072>076-082>087-097>100-106>115-172000-
...SOUTH CENTRAL AND SOUTHEAST MISSOURI...

CITY           SKY/WX    TMP DP  RH WIND       PRES   REMARKS
CAPE GIRARDEAU CLOUDY    38  36  92 W7        30.06F FOG
FARMINGTON     CLOUDY    39  35  86 SW8       30.02F
POPLAR BLUFF   CLOUDY    40  39  97 W6        30.07F FOG
WEST PLAINS    CLOUDY    40  39  97 W6        30.05F

$$



USA.gov is the U.S. government's official web portal to all federal, state and local government web resources and services.